Location: Old Romney
(50.9833°N, 0.8833°E)
Time: 12:20:19
(UTC+00:00)

Daily predictions for brighter satellites

Satellite Brightness Start Highest point End
(mag) Time Altitude Azimuth Time Altitude Azimuth Time Altitude Azimuth
SAR-Lupe-2 3.5 18:41:49 10° SSE 18:45:22 73° ENE 18:48:58 10° N
Cosmos 1315 Rocket 4.5 18:43:12 10° NNE 18:45:54 17° ENE 18:48:35 10° ESE
Cosmos 1125 Rocket 4.1 18:44:54 10° NNW 18:49:45 38° NE 18:54:35 10° ESE
ATLAS 2AS CENTAUR R/B 4.0 18:43:03 10° W 18:49:48 41° NNW 18:56:20 10° NE
Meteor PRIRODA 3.4 18:46:55 10° SSE 18:50:08 57° ENE 18:53:23 10° N
Cosmos 1842 3.5 18:47:54 10° N 18:51:22 41° ENE 18:54:49 10° SSE
USA 59 Rocket 0.2 18:49:11 10° NW 18:52:53 75° SW 18:57:57 10° SE
Cosmos 1536 3.9 18:51:43 10° SE 18:54:44 23° E 18:57:46 10° NE
Cosmos 1707 3.1 18:51:50 10° N 18:55:11 37° ENE 18:58:31 10° SE
Okean 3 Rocket 4.5 18:51:24 10° SSE 18:55:12 28° E 18:58:59 10° NNE
Cosmos 1515 Rocket 4.3 18:51:23 10° N 18:55:22 34° ENE 18:59:20 10° SE
Cosmos 2061 Rocket 4.2 18:49:30 10° S 18:55:57 87° WNW 19:02:27 10° N
COSMOS 2428 2.8 18:50:30 10° S 18:56:04 57° ESE 19:01:41 10° NE
Cosmos 1818 3.6 18:55:36 10° SW 19:01:04 90° NW 19:06:36 10° NE
Okean O Rocket 2.7 18:58:09 10° ESE 19:01:54 28° ENE 19:05:39 10° N
Cosmos 2278 Rocket 2.2 19:00:07 10° NNW 19:05:49 76° ENE 19:11:30 10° SE
DMSP B5D1-3 4.5 19:02:22 10° NNE 19:07:28 83° ESE 19:12:33 10° SSW
USA 306 2.2 19:04:34 10° SW 19:07:37 66° SSE 19:11:14 10° ENE
CZ-4B DEB 4.2 19:04:12 10° SSE 19:09:43 87° ENE 19:15:15 10° NNW
CZ-4 R/B 1.2 19:06:52 10° SSE 19:10:41 74° ENE 19:14:35 10° N
NOSS 2-1 (C) 4.3 19:09:35 10° NW 19:13:13 50° SW 19:18:07 10° SSE
CZ-4B R/B 3.3 19:08:54 10° SE 19:14:13 58° ENE 19:19:30 10° N
Cosmos 1766 Rocket 3.5 19:10:23 10° S 19:14:43 76° E 19:19:08 10° NNE
Meteor 2-17 Rocket 4.4 19:09:15 10° N 19:15:19 72° ENE 19:21:22 10° SSE
Helios 1A 2.8 19:12:08 10° NNE 19:16:11 65° ESE 19:20:12 10° S
Resurs 01 Rocket 1.7 19:11:54 10° SSE 19:16:15 60° ENE 19:20:37 10° N
USA 290 2.4 19:13:02 10° NNW 19:16:20 76° WSW 19:19:37 10° SSE
ADEOS 4.0 19:13:44 10° S 19:18:55 67° WSW 19:24:09 10° NNW
GEOS 3 Rocket 3.8 19:14:16 10° SE 19:19:30 76° SW 19:24:42 10° NW
USA 186 1.7 19:18:19 10° SSE 19:21:30 66° ENE 19:24:44 10° N
CZ-4B R/B 3.9 19:17:04 10° S 19:21:46 60° WSW 19:26:33 10° NNW
KORONAS-FOTON 3.8 19:18:35 10° NNW 19:22:18 81° W 19:25:58 10° S
Cosmos 1814 Rocket 4.0 19:17:07 10° SSW 19:22:25 80° ESE 19:27:40 10° NNE
Cosmos 2360 Rocket 4.0 19:17:31 10° WSW 19:22:35 33° NW 19:27:39 10° NNE
PAYLOAD B 4.3 19:17:14 10° SSE 19:22:50 86° ENE 19:28:29 10° NNW
Cosmos 1743 3.9 19:19:53 10° SSW 19:23:17 42° WNW 19:26:43 10° N
MOS 1-B 4.5 19:18:29 10° SE 19:24:08 58° ENE 19:29:48 10° N
SPOT 5 3.8 19:22:15 16° ESE 19:24:55 27° ENE 19:28:38 10° N
Okean-O 3.7 19:23:05 16° ESE 19:25:40 28° ENE 19:29:26 10° N
SKYMED 3 4.5 19:22:57 10° NNE 19:27:06 84° WNW 19:31:13 10° SSW
USA 267 3.8 19:21:41 10° ENE 19:27:59 54° N 19:34:19 10° WNW
Cosmos 1408 Rocket 4.2 19:24:55 10° SSE 19:28:53 35° E 19:32:55 10° NNE
ISS -2.8 19:26:29 10° SSW 19:29:27 30° SSE 19:30:43 22° ESE
SPOT 1/Viking Rocket 4.2 19:25:01 10° S 19:30:06 57° W 19:35:12 10° NNW
CZ-4B R/B 3.1 19:26:54 10° S 19:30:46 71° WSW 19:34:51 10° NNW
Kosmos-1783 2.9 19:30:10 10° WSW 19:32:13 45° NW 19:33:12 19° NNE
SL-08 R/B 3.7 19:27:49 10° NNE 19:32:45 73° WNW 19:37:39 10° SSW
Cosmos 2237 Rocket 2.4 19:29:44 10° S 19:35:06 48° ESE 19:40:30 10° NE
Cosmos 2322 Rocket 4.5 19:30:36 10° W 19:35:16 25° NW 19:39:59 10° NNE
Aureole 3 Rocket 4.2 19:31:55 10° SSE 19:37:55 37° E 19:42:24 10° NNE
CSL-04 Rocket 3.6 19:32:39 10° SSE 19:38:00 79° ENE 19:43:20 10° NNW
Cosmos 2219 Rocket 3.6 19:34:30 10° WSW 19:39:51 41° NW 19:45:14 10° NNE
Cosmos 1674 4.4 19:37:01 10° NNW 19:39:59 30° W 19:42:55 10° SSW
Cosmos 1356 Rocket 3.8 19:38:06 10° NNW 19:42:17 66° W 19:46:25 10° S
Meteor 1-14 Rocket 4.3 19:38:23 10° SSW 19:43:55 83° WNW 19:49:30 10° NNE
Lacrosse 4 Rocket 4.2 19:41:12 10° WNW 19:43:56 16° WSW 19:46:38 10° SSW
Meteor 1-4 Rocket 4.0 19:42:59 10° NW 19:45:17 26° W 19:47:34 10° SSW
Meteor 1-11 Rocket 3.7 19:41:26 10° S 19:46:56 59° E 19:52:23 10° NNE
MOS 1 Rocket 4.2 19:45:38 23° ESE 19:48:12 36° ENE 19:53:02 10° N
CARTOSAT-1 3.9 19:47:04 10° S 19:51:17 65° W 19:55:32 10° NNW
ATLAS CENTAUR R/B 1.3 19:48:34 10° SSW 19:51:56 41° ESE 19:54:53 14° NE
Cosmos 158 Rocket 3.9 19:47:22 10° S 19:52:03 50° ESE 19:56:46 10° NNE
NOSS 3-4 (A) 4.2 19:46:07 10° NW 19:52:25 50° NNE 19:57:11 21° E
NOSS 3-4 (C) 4.2 19:46:14 10° NW 19:52:32 49° NNE 19:57:18 21° E
Cosmos 1805 Rocket 3.9 19:52:47 23° SSE 19:54:59 41° E 19:59:04 10° NNE
Cosmos 1428 Rocket 4.4 19:51:18 10° N 19:57:26 69° ENE 20:02:18 17° SSE
Cosmos 1733 2.9 19:55:48 10° SSW 19:59:14 82° W 20:02:41 10° N
In-Cosmos 22 4.4 19:54:24 10° NNW 20:00:08 77° W 20:05:43 10° S
USA 276 3.5 19:58:06 10° W 20:00:23 22° SSW 20:00:38 22° SSW
Cosmos 2369 Rocket 3.1 19:57:28 10° NNW 20:02:44 36° NE 20:05:12 25° E
Cosmos 1980 3.6 19:58:55 10° SSW 20:04:35 81° ESE 20:10:19 10° NNE
SWARM A 4.4 20:03:48 14° S 20:06:42 77° W 20:10:14 10° N
Meteor 1-21 4.4 20:02:02 10° N 20:07:40 54° ENE 20:10:23 30° SE
Cosmos 1943 Rocket 2.6 20:04:28 10° NW 20:09:52 57° WSW 20:14:05 17° S
Sich 1 2.9 20:07:33 23° S 20:10:07 62° E 20:14:24 10° NNE
Cosmos 1707 Rocket 4.3 20:06:32 10° N 20:10:36 33° ENE 20:11:05 33° E
DELTA 2 DEB (DPAF) 4.3 20:07:40 10° NNE 20:11:38 41° E 20:11:47 41° ESE
NOSS 0 Rocket 4.1 20:06:55 10° SW 20:13:10 75° NW 20:19:27 10° NNE
Cosmos 2298 Rocket 4.0 20:08:26 10° NNW 20:13:46 86° ENE 20:16:27 30° SSE
Nadezhda 4 Rocket 4.3 20:08:31 10° NNW 20:14:46 70° W 20:21:01 10° S
Terra 2.4 20:13:52 35° E 20:14:53 39° ENE 20:19:16 10° N
Cosmos 2195 Rocket 4.4 20:08:48 10° N 20:14:56 81° E 20:19:12 21° SSE
Cosmos 2150 Rocket 3.9 20:10:16 10° NNW 20:15:28 88° ENE 20:17:56 32° SSE
ACS3 Solar Sail 2.0 20:09:35 12° S 20:15:34 82° WSW 20:22:01 10° NNW
ERS-1 Rocket 3.3 20:14:03 35° ESE 20:15:38 48° ENE 20:20:28 10° N
USA 32 3.9 20:10:55 10° N 20:16:12 82° E 20:19:24 24° S
Cosmos 1570 Rocket 3.9 20:12:01 10° SSW 20:17:18 89° E 20:22:36 10° NNE
Cosmos 1975 3.3 20:18:59 39° ENE 20:18:59 39° ENE 20:22:06 10° NNE
OPS 6432 4.0 20:18:02 10° NW 20:21:14 84° SW 20:21:15 83° SW
Cosmos 2026 Rocket 3.9 20:16:01 10° N 20:22:18 78° E 20:25:51 27° SSE
Cosmos 1315 Rocket 3.4 20:18:24 10° NNW 20:22:18 54° W 20:24:27 24° SSW
Cosmos 1805 2.9 20:21:37 53° S 20:22:23 80° E 20:26:04 10° NNE
Cosmos 1092 Rocket 3.9 20:16:25 10° N 20:22:47 77° E 20:26:28 27° SSE
Ariane Rocket 3.6 20:24:21 34° E 20:25:14 37° ENE 20:29:53 10° N
Meteor 2-12 Rocket 4.4 20:19:55 10° N 20:26:05 70° ENE 20:28:56 33° SSE
Cosmos 836 Rocket 4.4 20:22:33 10° SSW 20:27:49 76° ESE 20:33:08 10° NNE
IRS-1A Rocket 4.3 20:26:28 36° SE 20:28:52 70° ENE 20:34:32 10° NNW
Cosmos 1536 4.4 20:26:57 10° SW 20:30:27 34° WNW 20:33:59 10° N
Okean 3 4.0 20:29:04 10° N 20:32:45 42° ENE 20:32:45 42° ENE
SL-16 R/B 2.4 20:35:16 45° ESE 20:35:31 45° ESE 20:40:54 10° NE
Okean O Rocket 2.7 20:35:02 18° SSW 20:38:00 41° W 20:42:13 10° NNW
Cosmos 1634 Rocket 3.9 20:36:31 30° SSE 20:39:47 68° E 20:46:05 10° NNE
Cosmos 1656 Rocket 3.6 20:34:07 10° NNW 20:39:48 75° ENE 20:41:19 50° SE
SL-14 R/B 3.5 20:36:13 10° NNW 20:39:58 61° W 20:40:36 51° SW
USA 306 2.9 20:36:58 10° W 20:40:19 54° N 20:40:35 53° N
COSMOS 2428 4.4 20:35:28 10° WSW 20:40:38 34° NW 20:45:50 10° NNE
USA 59 Rocket 2.9 20:40:20 10° W 20:42:09 12° WSW 20:44:10 10° SW
ATLAS 2AS CENTAUR R/B 4.3 20:36:29 10° WNW 20:42:30 29° N 20:48:20 10° ENE
CZ-4 R/B 4.3 20:44:11 10° WSW 20:45:43 12° W 20:47:16 10° WNW
Okean 2 4.4 20:42:01 10° N 20:44:49 33° NE 20:44:49 33° NE
IRS-1C Rocket 4.0 20:45:02 50° SSE 20:46:27 85° ENE 20:51:46 10° NNW
Cosmos 773 Rocket 3.9 20:45:39 36° S 20:47:51 73° ESE 20:53:09 10° NNE
Cosmos 2278 Rocket 4.3 20:45:07 10° NW 20:49:18 22° W 20:53:28 10° SSW
Okean 1-7 4.0 20:45:28 10° N 20:48:39 34° NE 20:48:39 34° NE
Cosmos 2263 4.4 20:45:17 10° NNW 20:50:56 55° NE 20:51:55 48° E
Cosmos 1500 Rocket 4.4 20:47:41 12° SSW 20:51:30 48° WNW 20:55:44 10° N
Resurs 01 Rocket 4.1 20:49:57 10° SW 20:53:03 18° W 20:56:10 10° NW
Cosmos 2228 Rocket 3.0 20:50:28 10° N 20:55:05 90° SSW 20:55:20 80° S
Cosmos 1743 Rocket 4.1 20:56:20 30° SW 20:58:12 54° WNW 21:02:29 10° N
SPOT 3 Rocket 3.4 21:00:55 66° E 21:01:13 67° ENE 21:06:21 10° N
Okean-O 3.7 21:00:31 31° SW 21:01:54 39° W 21:06:05 10° NNW
SPOT 5 3.6 21:01:22 34° SW 21:02:46 44° W 21:07:03 10° NNW
Cosmos 2142 Rocket 4.4 21:02:35 56° ESE 21:03:04 58° E 21:09:06 10° NNE
ISS -1.4 21:02:39 10° WSW 21:03:42 19° WSW 21:03:42 19° WSW
NOSS 3-3 (C) 3.8 21:00:44 10° SW 21:06:15 85° NW 21:12:52 10° NE
USA 267 3.3 21:08:22 43° E 21:10:36 70° NNE 21:17:07 10° WNW
Cosmos 724 4.2 21:15:31 63° ENE 21:15:31 63° ENE 21:20:33 10° NE
Cosmos 2180 Rocket 4.4 21:17:01 63° ESE 21:17:25 65° E 21:23:44 10° NNE
Cosmos 2237 Rocket 3.6 21:14:07 10° WSW 21:19:19 38° NW 21:24:33 10° NNE
NOSS 3-3 (A) 4.1 21:14:58 10° SW 21:20:30 70° NW 21:27:08 10° NE
Cosmos 2279 Rocket 3.9 21:20:00 59° S 21:21:19 89° E 21:27:35 10° N
Cosmos 1607 3.9 21:18:11 10° SW 21:24:40 86° SE 21:31:09 10° NE
Cosmos 2297 3.9 21:23:01 10° NW 21:28:33 58° WSW 21:28:59 56° SW
ATLAS CENTAUR R/B 2.9 21:26:10 10° W 21:29:25 30° NW 21:29:51 29° NNW
Spot 2 Rocket 3.8 21:31:06 58° WSW 21:31:13 58° W 21:36:13 10° NNW
Cosmos 1633 Rocket 4.2 21:43:08 42° NNW 21:43:08 42° NNW 21:46:17 10° N
NOSS 3-4 (A) 4.0 21:36:56 10° NW 21:43:36 60° SW 21:44:37 56° SSW
NOSS 3-4 (C) 4.0 21:37:02 10° NW 21:43:44 61° SW 21:44:43 56° SSW
Cosmos 2369 Rocket 2.7 21:41:27 10° NW 21:46:58 52° WSW 21:46:58 52° WSW
Terra 3.2 21:52:34 31° W 21:52:34 31° W 21:56:44 10° NNW
ERS-1 Rocket 4.5 21:53:59 27° WSW 21:54:35 28° W 21:58:54 10° NW
ACS3 Solar Sail 4.2 21:56:34 10° WSW 22:00:35 17° W 22:04:38 10° NW
Ariane Rocket 4.1 22:04:29 37° W 22:04:29 37° W 22:08:52 10° NNW
Cosmos 2266 Rocket 4.2 22:03:25 10° NNW 22:09:35 62° W 22:09:40 62° W
SL-16 R/B 3.4 22:17:01 25° W 22:19:43 40° NW 22:25:04 10° NNE
ATLAS 2AS CENTAUR R/B 3.6 22:28:39 10° NW 22:35:11 41° NNE 22:36:31 38° NE
Cosmos 1943 4.2 22:41:44 41° NNE 22:41:44 41° NNE 22:45:28 10° NNE
Cosmos 1697 Rocket 4.1 22:48:05 10° NNW 22:52:28 33° NNE 22:52:28 33° NNE
USA 267 4.0 22:55:43 42° W 22:55:43 42° W 23:00:12 10° WNW
Cosmos 2344 3.8 23:18:53 10° NW 23:27:01 84° SW 23:27:14 83° SSW
Cosmos 1980 Rocket 3.5 23:48:19 10° NNW 23:52:13 36° NNE 23:52:13 36° NNE
